Location: Berlise
(49.6641°N, 4.1077°E)
Time: 02:21:42
(UTC+00:00)

Cosmos 2228 - Pass Details

Date: 27 January 2021
Orbit: 589 x 617 km, 82.5° (Epoch: 28 February)

Event Time Altitude Azimuth Distance (km) Brightness Sun altitude
Rises 05:11:45 0° 172° (S) 2,816 6.6 -21.1°
Reaches altitude 10° 05:14:00 10° 166° (SSE) 1,918 5.8 -20.7°
Maximum altitude 05:18:02 46° 93° (E) 804 4.1 -20.0°
Drops below altitude 10° 05:22:06 10° 21° (NNE) 1,930 5.8 -19.4°
Sets 05:24:23 0° 15° (NNE) 2,837 6.6 -19.0°
